Groton, CT

2:31 AM EDT on August 24, 2016 (GMT -0400)
Groton-New London

Weather History for KGON - October, 2011

Change the Weather History Date:

Wednesday, October 26, 2011

  Actual Average Record
Temperature  
Mean Temperature 50 °F -  
Max Temperature 57 °F 58 °F 74 °F (1971)
Min Temperature 44 °F 41 °F 29 °F (1969)
Degree Days  
Heating Degree Days 14    
Moisture  
Dew Point 43 °F    
Average Humidity 73    
Maximum Humidity 89    
Minimum Humidity 57    
Precipitation  
Precipitation 0.00 in - - ()
Sea Level Pressure  
Sea Level Pressure 29.88 in    
Wind  
Wind Speed 4 mph (NNE)    
Max Wind Speed 8 mph    
Max Gust Speed -    
Visibility 10 miles    
Events Rain    
Averages and records for this station are not official NWS values.
T = Trace of Precipitation, MM = Missing Value Source: NWS Daily Summary

Daily Weather History Graph

Daily Weather History Graph

Search for Another Location

Airport or City:

Trip Planner

Search our weather history database for the weather conditions in past years. The results will help you decide how hot, cold, wet, or windy it might be!

Date:

Astronomy

Oct. 26, 2011 Rise Set
Actual Time 7:12 AM EDT 5:51 PM EDT
Civil Twilight 6:43 AM EDT 6:19 PM EDT
Nautical Twilight 6:11 AM EDT 6:52 PM EDT
Astronomical Twilight 5:39 AM EDT 7:24 PM EDT
Moon 6:56 AM EDT (10/26) 5:31 PM EDT (10/26)
Length of Visible Light 11h 36m
Length of Day
10h 39m
Waning Crescent, 0% of the Moon is Illuminated
Oct 26
Waning Crescent
Oct 26
New
Nov 2
First Quarter
Nov 10
Full
Nov 18
Last Quarter

Hourly Weather History & Observations

Time (EDT) Temp. Windchill Dew Point Humidity Pressure Visibility Wind Dir Wind Speed Gust Speed Precip Events Conditions
12:56 AM 48.9 °F - 36.0 °F 61% 30.04 in 10.0 mi NW 3.5 mph - N/A   Overcast
1:56 AM 50.0 °F - 36.0 °F 59% 30.03 in 10.0 mi NNW 4.6 mph - N/A   Overcast
2:56 AM 50.0 °F - 35.1 °F 57% 30.01 in 10.0 mi NNW 6.9 mph - N/A   Overcast
3:56 AM 48.0 °F - 36.0 °F 63% 30.02 in 10.0 mi NW 5.8 mph - 0.00 in   Partly Cloudy
4:56 AM 48.0 °F - 36.0 °F 63% 30.00 in 10.0 mi Calm Calm - 0.00 in   Scattered Clouds
5:56 AM 45.0 °F - 37.9 °F 76% 30.00 in 10.0 mi Calm Calm - N/A   Partly Cloudy
6:56 AM 44.1 °F 42.5 °F 39.9 °F 85% 29.97 in 10.0 mi NNW 3.5 mph - N/A   Partly Cloudy
7:56 AM 46.0 °F 44.8 °F 43.0 °F 89% 29.97 in 10.0 mi NNE 3.5 mph - N/A   Partly Cloudy
8:56 AM 48.0 °F - 41.0 °F 77% 29.97 in 10.0 mi Calm Calm - 0.00 in Rain Light Rain
9:56 AM 48.9 °F - 41.0 °F 74% 29.96 in 10.0 mi Calm Calm - 0.00 in   Mostly Cloudy
10:56 AM 50.0 °F - 43.0 °F 77% 29.92 in 10.0 mi ENE 3.5 mph - 0.00 in   Scattered Clouds
11:56 AM 53.6 °F - 44.6 °F 72% 29.88 in 10.0 mi SE 8.1 mph - N/A   Scattered Clouds
12:56 PM 55.0 °F - 45.0 °F 69% 29.85 in 10.0 mi SE 4.6 mph - N/A   Scattered Clouds
1:56 PM 57.0 °F - 48.0 °F 72% 29.81 in 10.0 mi SE 6.9 mph - N/A   Overcast
2:13 PM 57.2 °F - 48.2 °F 72% 29.79 in 10.0 mi East 4.6 mph - N/A   Overcast
2:56 PM 57.2 °F - 48.2 °F 72% 29.78 in 10.0 mi NE 8.1 mph - N/A   Overcast
3:56 PM 57.9 °F - 46.9 °F 67% 29.77 in 10.0 mi NE 4.6 mph - N/A   Mostly Cloudy
4:56 PM 57.0 °F - 46.0 °F 67% 29.79 in 10.0 mi North 8.1 mph - N/A   Overcast
5:56 PM 55.0 °F - 46.0 °F 72% 29.78 in 10.0 mi NNE 6.9 mph - N/A   Overcast
6:56 PM 54.0 °F - 46.0 °F 75% 29.77 in 10.0 mi Calm Calm - N/A   Overcast
7:56 PM 52.0 °F - 46.0 °F 80% 29.79 in 10.0 mi Calm Calm - N/A   Overcast
8:56 PM 53.1 °F - 46.0 °F 77% 29.78 in 10.0 mi NNE 3.5 mph - N/A   Overcast
9:56 PM 51.1 °F - 46.0 °F 83% 29.78 in 10.0 mi NNE 4.6 mph - 0.00 in Rain Light Rain
10:56 PM 51.1 °F - 46.0 °F 83% 29.77 in 10.0 mi Calm Calm - 0.00 in   Overcast
11:56 PM 50.0 °F - 45.0 °F 83% 29.76 in 10.0 mi Calm Calm - N/A   Overcast